[[{"header":{"parameterUnit":"m.s-1","parameterCategory":1,"la1":30.2991,"la2":30.254,"lo1":-89.0895,"lo2":-89.0444,"dy":0.0017,"dx":0.0017,"nx":28,"ny":28,"refTime":"2024-07-25T09:00:00:Z","depth":0,"parameterNumber":2,"parameterNumberName":"U-component_of_WINDS"},"data":[0,0,0,0,0,0,0,0,0,0,0,0,0,0,0,0,0,0,0,0,0,0,0,0,0,0,0,0,0,0,0,0,0,0,0,0,0,0,0,0,0,0,0,0,0,0,0,0,0,0,0,0,0,0,0,0,0,0,-0.7168,-0.7168,0,-0.7131,-0.7131,-0.7131,-0.7008,-0.7006,-0.7003,-0.7,-0.6965,-0.6967,-0.6968,0,0,0,0,0,0,0,0,0,0,0,0,0,-0.7135,-0.7137,-0.7168,-0.7168,-0.7167,-0.7132,-0.7131,-0.7131,-0.7009,-0.7006,-0.7002,-0.6999,-0.6965,-0.6967,-0.6969,0,0,0,0,0,0,0,0,0,0,0,0,0,-0.7129,-0.7137,-0.7168,-0.7102,-0.7096,-0.7132,-0.7131,-0.713,-0.701,-0.7006,-0.7001,-0.6998,-0.6964,-0.6966,-0.6969,-0.7066,0,0,-0.6976,-0.6977,0,0,0,0,0,0,0,0,-0.713,-0.7131,-0.7112,-0.7107,-0.71,-0.707,-0.7106,-0.7109,-0.7011,-0.7043,-0.7,-0.6996,-0.7004,-0.7003,-0.7005,-0.7065,-0.7063,-0.6976,-0.6978,-0.6979,-0.698,0,0,0,0,0,0,0,-0.7131,-0.7132,-0.7154,-0.7112,-0.7105,-0.7075,-0.707,-0.7106,-0.7047,-0.7039,-0.703,-0.7028,-0.6999,-0.7003,-0.7003,-0.7062,-0.6976,-0.6979,-0.698,-0.6981,-0.7201,-0.7205,0,0,0,0,0,0,-0.714,-0.7133,-0.7155,-0.7152,-0.7105,-0.7079,-0.7073,-0.7084,-0.7046,-0.7036,-0.7031,-0.7022,-0.7001,-0.7,-0.7001,-0.7113,-0.6979,-0.6981,-0.6983,-0.7197,-0.7202,-0.7207,0,0,0,0,0,0,-0.714,-0.7143,-0.7156,-0.714,-0.714,-0.7084,-0.7097,-0.7085,-0.7088,-0.704,-0.7029,-0.7045,-0.6997,-0.6998,-0.7051,-0.711,-0.6982,-0.6985,-0.7192,-0.7198,-0.7204,-0.7338,0,0,0,0,0,0,-0.7139,-0.7144,-0.7179,-0.7142,-0.7141,-0.7206,-0.7101,-0.7088,-0.7093,-0.708,-0.705,-0.7041,-0.6994,-0.7048,-0.7053,-0.7111,-0.6986,-0.7186,-0.7195,-0.7202,-0.7328,-0.7348,-0.7365,0,0,0,0,0,-0.7139,-0.7219,-0.7182,-0.7185,-0.7184,-0.721,-0.7209,-0.7153,-0.7098,-0.7134,-0.7103,-0.7042,-0.7103,-0.7054,-0.7059,-0.7119,-0.7182,-0.7192,-0.7202,-0.7319,-0.7344,-0.7365,0,0,0,0,0,0,-0.7265,-0.7213,-0.7171,-0.7241,-0.7231,-0.7189,-0.7232,-0.7181,-0.7186,-0.7175,-0.7105,-0.7099,-0.7163,-0.7146,-0.7093,-0.7212,-0.7132,-0.7144,-0.722,-0.7243,-0.7262,-0.7264,-0.6988,0,0,0,0,0,-0.7301,-0.7326,-0.7278,-0.7345,-0.7342,-0.7289,-0.7297,-0.7255,-0.7242,-0.7237,-0.7209,-0.7199,-0.7216,-0.7229,-0.7241,-0.7325,-0.7317,-0.7368,-0.7387,-0.7403,-0.7414,-0.7457,-0.748,-0.7239,-0.7239,-0.7239,0,0,-0.7376,-0.735,-0.737,-0.737,-0.7357,-0.7384,-0.7286,-0.7319,-0.7339,-0.7242,-0.729,-0.727,-0.7254,-0.7323,-0.7352,-0.7311,-0.7478,-0.7415,-0.7428,-0.743,-0.747,-0.7493,-0.7513,-0.7246,-0.7245,-0.7244,0,0,-0.7526,-0.7509,-0.7563,-0.7552,-0.7533,-0.7497,-0.7511,-0.7477,-0.7459,-0.7507,-0.7435,-0.7458,-0.7488,-0.748,-0.748,-0.7629,-0.7574,-0.7635,-0.7734,-0.7777,-0.7796,-0.7812,-0.7866,-0.7886,-0.7646,-0.7647,-0.7647,0,-0.7622,-0.766,-0.7597,-0.7635,-0.7638,-0.7551,-0.7606,-0.7598,-0.7585,-0.759,-0.7544,-0.758,-0.7564,-0.763,-0.7666,-0.7669,-0.7683,-0.7638,-0.7798,-0.7814,-0.7829,-0.7879,-0.7899,-0.7654,-0.7653,-0.7652,-0.7652,0,-0.7778,-0.7806,-0.7852,-0.7841,-0.7848,-0.7895,-0.784,-0.7856,-0.7813,-0.7783,-0.7833,-0.781,-0.7817,-0.7829,-0.7788,-0.789,-0.7866,-0.781,-0.7729,-0.786,-0.7906,-0.7925,-0.7665,-0.7662,-0.766,-0.7658,0,0,-0.8007,-0.7961,-0.7979,-0.7973,-0.7947,-0.7967,-0.801,-0.8016,-0.8032,-0.8026,-0.8061,-0.8089,-0.8037,-0.8038,-0.7995,-0.8033,-0.8153,-0.7973,-0.7971,-0.8008,-0.8265,-0.8308,-0.8331,-0.8117,-0.812,-0.8123,-0.8267,0,-0.815,-0.8219,-0.8165,-0.8245,-0.827,-0.8189,-0.8226,-0.8215,-0.8188,-0.8206,-0.8176,-0.8197,-0.8128,-0.8127,-0.8161,-0.8132,-0.8204,-0.812,-0.8149,-0.8151,-0.8156,-0.8355,-0.8399,-0.8536,-0.8285,-0.8288,-0.829,0,-0.8325,-0.8327,-0.841,-0.8378,-0.8387,-0.8421,-0.8423,-0.8441,-0.8427,-0.8405,-0.8406,-0.8353,-0.8394,-0.8315,-0.8371,-0.8315,-0.8324,-0.8311,-0.8315,-0.8316,-0.8228,-0.8361,-0.8578,-0.8599,-0.8317,-0.8315,-0.8313,0,-0.8484,-0.8507,-0.8559,-0.8557,-0.8522,-0.8548,-0.8535,-0.8517,-0.8524,-0.8526,-0.8531,-0.8538,-0.8542,-0.855,-0.8501,-0.8448,-0.8564,-0.848,-0.8547,-0.8549,-0.8575,-0.8574,-0.8797,-0.8581,-0.8581,-0.858,-0.858,0,-0.8649,-0.8703,-0.863,-0.8663,-0.8721,-0.8659,-0.8718,-0.8697,-0.8681,-0.8709,-0.8639,-0.8667,-0.8601,-0.8622,-0.8584,-0.8637,-0.8639,-0.8623,-0.8612,-0.8629,-0.8631,-0.8634,-0.8623,-0.8586,-0.8585,-0.8584,-0.8583,0,-0.8836,-0.879,-0.8841,-0.8804,-0.8796,-0.8841,-0.8809,-0.8838,-0.8807,-0.8843,-0.8847,-0.8799,-0.882,-0.8772,-0.8786,-0.8761,-0.8836,-0.8811,-0.8841,-0.8833,-0.8903,-0.8898,-0.9136,-0.9164,-0.893,-0.8932,-0.8934,0,-0.8945,-0.8984,-0.8951,-0.8964,-0.8955,-0.8977,-0.8984,-0.8925,-0.8936,-0.8923,-0.8954,-0.8969,-0.8978,-0.9016,-0.8983,-0.8994,-0.8968,-0.9051,-0.8969,-0.8985,-0.897,-0.8968,-0.8972,-0.9068,-0.9071,-0.9073,-0.9075,0,-0.9142,-0.9117,-0.913,-0.9136,-0.9146,-0.9148,-0.9145,-0.916,-0.9097,-0.9113,-0.9133,-0.9141,-0.9155,-0.9172,-0.9176,-0.9163,-0.9109,-0.9101,-0.9117,-0.9134,-0.9151,-0.9143,-0.8887,-0.9095,-0.9093,-0.9092,-0.9091,-0.909,-0.9293,-0.9324,-0.9306,-0.9323,-0.9315,-0.9314,-0.9339,-0.9311,-0.9327,-0.9334,-0.9299,-0.9328,-0.9313,-0.9313,-0.9306,-0.9328,-0.9291,-0.9314,-0.932,-0.9327,-0.9338,-0.9148,-0.9328,-0.9328,-0.9327,-0.9327,-0.9326,0,-0.9487,-0.9471,-0.9488,-0.9485,-0.9499,-0.9447,-0.9441,-0.9457,-0.9482,-0.9474,-0.9484,-0.9509,-0.9525,-0.9493,-0.9504,-0.9528,-0.9504,-0.9533,-0.9531,-0.9529,-0.9371,-0.9356,-0.9553,-0.9552,-0.9552,-0.9552,-0.9552,-0.9552,-0.9589,-0.964,-0.9614,-0.966,-0.9644,-0.9671,-0.9673,-0.9672,-0.9664,-0.9695,-0.9707,-0.9686,-0.9669,-0.9678,-0.9691,-0.9681,-0.9689,-0.9727,-0.9709,-0.9562,-0.954,-0.9519,-0.9504,-0.9729,-0.9729,-0.9865,-0.9866,-0.9867]},{"header":{"parameterUnit":"m.s-1","parameterCategory":1,"la1":30.2991,"la2":30.254,"lo1":-89.0895,"lo2":-89.0444,"dy":0.0017,"dx":0.0017,"nx":28,"ny":28,"refTime":"2024-07-25T09:00:00:Z","depth":0,"parameterNumber":3,"parameterNumberName":"V-component_of_WINDS"},"data":[0,0,0,0,0,0,0,0,0,0,0,0,0,0,0,0,0,0,0,0,0,0,0,0,0,0,0,0,0,0,0,0,0,0,0,0,0,0,0,0,0,0,0,0,0,0,0,0,0,0,0,0,0,0,0,0,0,0,1.4982,1.4982,0,1.4972,1.4972,1.4972,1.5024,1.5025,1.5027,1.5028,1.5015,1.5013,1.5011,0,0,0,0,0,0,0,0,0,0,0,0,0,1.5042,1.504,1.4982,1.4982,1.4982,1.4972,1.4972,1.4972,1.5023,1.5025,1.5027,1.5029,1.5015,1.5013,1.5011,0,0,0,0,0,0,0,0,0,0,0,0,0,1.5022,1.504,1.4982,1.5006,1.5008,1.4972,1.4972,1.4972,1.5023,1.5025,1.5027,1.503,1.5016,1.5013,1.5011,1.495,0,0,1.5003,1.5002,0,0,0,0,0,0,0,0,1.5023,1.502,1.5003,1.5005,1.5007,1.5002,1.4989,1.4965,1.5022,1.5017,1.5028,1.5031,1.5008,1.5006,1.5,1.495,1.4949,1.5003,1.5001,1.5,1.4999,0,0,0,0,0,0,0,1.5024,1.5021,1.4978,1.5002,1.5005,1.5017,1.5016,1.4984,1.5,1.5018,1.5022,1.502,1.501,1.5002,1.5,1.4949,1.5003,1.5,1.4999,1.4998,1.4847,1.4845,0,0,0,0,0,0,1.5023,1.5021,1.4978,1.4978,1.5021,1.5014,1.5013,1.5001,1.5001,1.5003,1.5018,1.5022,1.5005,1.5003,1.4999,1.4927,1.5,1.4998,1.4996,1.485,1.4847,1.4844,0,0,0,0,0,0,1.5024,1.5019,1.4979,1.5001,1.4996,1.501,1.4996,1.5,1.4992,1.5001,1.5004,1.5007,1.5007,1.5003,1.4962,1.4927,1.4996,1.4994,1.4853,1.4849,1.4845,1.4783,0,0,0,0,0,0,1.5026,1.5019,1.4996,1.5,1.4995,1.4942,1.4994,1.4998,1.4988,1.4993,1.4992,1.4993,1.5009,1.4966,1.4959,1.4925,1.4992,1.4856,1.4851,1.4847,1.4788,1.4777,1.4768,0,0,0,0,0,1.5028,1.4979,1.4995,1.499,1.4968,1.494,1.4937,1.4957,1.4985,1.4962,1.4968,1.4994,1.4933,1.4961,1.4954,1.4919,1.4858,1.4852,1.4847,1.4792,1.4779,1.4769,0,0,0,0,0,0,1.497,1.498,1.4998,1.4949,1.4943,1.4949,1.492,1.4942,1.4928,1.4934,1.4957,1.4956,1.4911,1.4911,1.4942,1.486,1.49,1.4893,1.4861,1.4849,1.4839,1.4839,1.499,0,0,0,0,0,1.4952,1.4929,1.4939,1.4895,1.4891,1.4906,1.4895,1.491,1.4905,1.4903,1.4906,1.4899,1.4878,1.4864,1.4845,1.4789,1.4789,1.4761,1.4752,1.4744,1.4736,1.4705,1.4693,1.4826,1.4826,1.4826,0,0,1.4913,1.4916,1.49,1.4883,1.4881,1.4856,1.4904,1.4876,1.4857,1.4898,1.4859,1.4861,1.4855,1.4806,1.4784,1.4805,1.47,1.4737,1.473,1.4727,1.4698,1.4686,1.4674,1.4822,1.4823,1.4824,0,0,1.483,1.483,1.4793,1.479,1.4786,1.4797,1.4788,1.479,1.4793,1.4755,1.4785,1.4763,1.4728,1.4722,1.4714,1.4629,1.4652,1.4623,1.4571,1.454,1.453,1.452,1.4488,1.4477,1.4616,1.4616,1.4616,0,1.4782,1.4747,1.4771,1.4741,1.4732,1.4769,1.4731,1.4726,1.4716,1.4709,1.4732,1.4688,1.4687,1.4636,1.4615,1.4608,1.4597,1.4622,1.4529,1.452,1.4512,1.4482,1.447,1.4612,1.4613,1.4613,1.4613,0,1.4687,1.4663,1.4633,1.4623,1.4611,1.4577,1.4594,1.4579,1.4596,1.4604,1.4564,1.4564,1.4546,1.4535,1.4551,1.4486,1.4499,1.4526,1.4566,1.4495,1.4467,1.4456,1.4607,1.4608,1.4609,1.461,0,0,1.4566,1.457,1.4559,1.4554,1.4553,1.4534,1.4501,1.4485,1.447,1.4463,1.4435,1.4404,1.4429,1.442,1.4436,1.4409,1.434,1.4439,1.4439,1.4419,1.4267,1.4245,1.4232,1.4356,1.4354,1.4352,1.4267,0,1.4483,1.4428,1.4449,1.4392,1.4368,1.4404,1.4375,1.4371,1.4378,1.4358,1.4365,1.4342,1.4378,1.4372,1.4348,1.4353,1.4309,1.436,1.4328,1.4327,1.4327,1.4217,1.4194,1.4113,1.4256,1.4254,1.4253,0,1.4378,1.4367,1.4308,1.4311,1.4302,1.4275,1.4262,1.4243,1.4239,1.4245,1.4236,1.4257,1.4224,1.4267,1.4221,1.4255,1.4243,1.4244,1.4242,1.4237,1.4284,1.4208,1.4088,1.4075,1.4236,1.4238,1.4239,0,1.4293,1.4263,1.4224,1.4219,1.4222,1.4202,1.4202,1.4201,1.4189,1.4177,1.4169,1.4153,1.4144,1.413,1.4146,1.4176,1.4097,1.4142,1.41,1.41,1.408,1.4081,1.3954,1.4076,1.4076,1.4077,1.4077,0,1.4197,1.4159,1.4185,1.4161,1.4119,1.4143,1.4101,1.4105,1.4103,1.4078,1.4109,1.4085,1.4109,1.4088,1.41,1.4059,1.4055,1.4059,1.4062,1.4055,1.4054,1.4046,1.4051,1.4073,1.4074,1.4075,1.4075,0,1.4094,1.411,1.4069,1.4076,1.4076,1.4045,1.405,1.4027,1.4036,1.4005,1.3999,1.4013,1.399,1.4005,1.3981,1.399,1.3936,1.3948,1.3937,1.3939,1.3897,1.39,1.3759,1.3741,1.3876,1.3875,1.3874,0,1.403,1.4002,1.4006,1.3992,1.399,1.3969,1.3957,1.398,1.3967,1.396,1.3937,1.3917,1.3901,1.3861,1.3869,1.385,1.3861,1.3813,1.3858,1.3851,1.3858,1.3858,1.3855,1.3803,1.3801,1.38,1.3799,0,1.3916,1.3925,1.3908,1.3894,1.388,1.3869,1.3861,1.3848,1.3872,1.3855,1.3832,1.382,1.3796,1.3774,1.3759,1.3758,1.3781,1.3785,1.3774,1.3765,1.3759,1.376,1.391,1.3788,1.3789,1.379,1.379,1.3791,1.3829,1.3805,1.3804,1.3784,1.378,1.3772,1.3751,1.3758,1.3739,1.3722,1.3737,1.3708,1.3704,1.3686,1.3683,1.366,1.3679,1.3664,1.366,1.3655,1.3648,1.3765,1.3657,1.3658,1.3658,1.3658,1.3659,0,1.3714,1.3715,1.3697,1.3685,1.3669,1.3695,1.3687,1.3672,1.3647,1.3642,1.3626,1.3599,1.3578,1.3584,1.3566,1.3546,1.3556,1.354,1.3541,1.354,1.3633,1.3643,1.3532,1.3532,1.3532,1.3532,1.3532,1.3532,1.3652,1.3613,1.3622,1.3581,1.3583,1.3556,1.3549,1.3541,1.3537,1.3506,1.3489,1.3494,1.3493,1.3475,1.3456,1.3459,1.3449,1.3429,1.3435,1.3521,1.3533,1.3545,1.3555,1.3427,1.3427,1.3343,1.3343,1.3342]}]]